Flag for Australia Weather past 2 weeks in Sydney, New South Wales, Australia

Now
50 °F

Passing clouds.


Feels Like: 43 °F
Forecast: 47 / 58 °F
Wind: 22 mph from Northwest

Location: Sydney Airport

Current Time: Aug 1, 2014 at 8:19:03 PM

Latest Report: Aug 1, 2014 at 8:04 PM


Visibility: N/A

Pressure: 29.95 "Hg

Humidity: 54%

Dew point: 34 °F

Location of SydneyLocation

Historic Weather in Sydney — Graph

°F

Sydney temperature yesterday

Maximum temperature yesterday: 77 °F (at 1:00 PM)
Minimum temperature yesterday: 57 °F (at 2:30 AM)
Average temperature yesterday: 67 °F

Past Weeks' High & Low Weather Summary

 TemperatureHumidityPressure
High77 °F (Jul 30, 1:30 PM)94% (Jul 23, 2:30 AM)30.30 "Hg (Jul 23, 2:30 AM)
Low46 °F (Jul 19, 2:30 AM)14% (Jul 31, 4:30 PM)29.62 "Hg (Aug 1, 3:30 AM)
Average58 °F56%30.08 "Hg
* Reported Jul 17 7:00 PM — Aug 1 7:00 PM, Sydney, Weather by CustomWeather, © 2014

Note: Actual official high and low records may vary slightly from our data, if they occured in-between our weather recording intervals... More about our weather records

Advertising

Sydney weather history for previous 24 hours

 ConditionsComfort  
Time TempWeatherWind HumidityBarometerVisibility
7:00 PM
Aug 1
54 °FPassing clouds.36 mph35%29.89 "HgN/A
6:30 PM55 °FClear.31 mph28%29.92 "Hg10 mi
6:00 PM57 °FClear.25 mph23%29.89 "Hg10 mi
5:00 PM59 °FClear.23 mph20%29.83 "Hg10 mi
4:30 PM61 °FClear.18 mph17%29.83 "Hg10 mi
4:00 PM61 °FSunny.22 mph17%29.80 "Hg10 mi
3:30 PM63 °FSunny.25 mph14%29.80 "Hg10 mi
3:00 PM63 °FSunny.24 mph16%29.80 "Hg10 mi
2:30 PM63 °FSunny.29 mph15%29.77 "Hg10 mi
2:04 PM64 °FSunny.25 mph14%29.77 "Hg10 mi
1:30 PM63 °FSunny.21 mph22%29.74 "Hg10 mi
1:02 PM61 °FSunny.21 mph25%29.74 "Hg10 mi
12:30 PM63 °FSunny.22 mph27%29.74 "Hg10 mi
12:00 PM63 °FSunny.25 mph25%29.74 "Hg10 mi
11:30 AM66 °FSunny.18 mph30%29.74 "Hg10 mi
11:00 AM66 °FPassing clouds.17 mph24%29.74 "HgN/A
10:30 AM66 °FSunny.17 mph30%29.74 "Hg10 mi
10:00 AM66 °FSunny.14 mph32%29.74 "Hg10 mi
9:30 AM66 °FSunny.14 mph32%29.74 "Hg10 mi
9:00 AM64 °FSunny.10 mph32%29.74 "Hg10 mi
8:30 AM63 °FSunny.9 mph32%29.74 "Hg10 mi
8:00 AM61 °FSunny.12 mph34%29.71 "Hg10 mi
7:30 AM61 °FSunny.17 mph29%29.71 "Hg10 mi
7:00 AM61 °FSunny.13 mph27%29.68 "Hg10 mi
6:00 AM63 °FSunny.8 mph22%29.65 "Hg10 mi
5:30 AM63 °FClear.7 mph24%29.65 "Hg10 mi
5:00 AM63 °FClear.10 mph22%29.65 "Hg10 mi
4:30 AM63 °FClear.13 mph20%29.62 "Hg10 mi
4:00 AM63 °FClear.15 mph22%29.62 "Hg10 mi
3:30 AM63 °FClear.15 mph22%29.62 "Hg10 mi
3:00 AM61 °FClear.13 mph23%29.65 "Hg10 mi
2:30 AM63 °FClear.16 mph22%29.65 "Hg10 mi
2:00 AM64 °FClear.20 mph19%29.65 "Hg10 mi
12:00 AM64 °FClear.16 mph22%29.68 "Hg10 mi
11:30 PM
Jul 31
64 °FClear.15 mph22%29.68 "Hg10 mi
11:00 PM66 °FClear.15 mph21%29.71 "Hg10 mi
10:30 PM66 °FClear.16 mph21%29.71 "Hg10 mi
10:00 PM66 °FClear.16 mph19%29.71 "Hg10 mi
9:30 PM68 °FClear.15 mph20%29.71 "Hg10 mi
9:00 PM68 °FClear.17 mph21%29.71 "Hg10 mi
8:30 PM68 °FClear.17 mph20%29.71 "Hg10 mi
8:00 PM70 °FClear.18 mph17%29.71 "Hg10 mi
Weather by CustomWeather, © 2014

See weather overviewHow to use our weather pages